Hourly Data Report for October 01, 2017

All times are specified in Local Standard Time (LST). Add 1 hour to adjust for Daylight Saving Time where and when it is observed.

MONCTON INTL A
NEW BRUNSWICK

46°06'44.000" N
64°40'43.000" W
70.70 m
8103201
71705
YQM

Download Data

Hourly Data (October 2017)
Hourly Data Report for October 1, 2017
Temp Definition
°C
Dew Point Temp Definition
°C
Rel Hum Definition
%
Wind Dir Definition
10's deg

Wind Spd Definition
km/h
Visibility Definition
km
Stn Press Definition
kPa
Hmdx Definition


Wind Chill Definition


Weather Definition


TIME
00:00 Legend Double Dagger 2.2 1.6 96 22 13 24.1 101.52     LegendNANA
01:00 Legend Double Dagger 1.3 0.5 94 22 10 24.1 101.53     LegendNANA
02:00 Legend Double Dagger 0.7 -0.1 95 22 13 24.1 101.52     Clear
03:00 Legend Double Dagger 0.0 -0.6 95 21 12 24.1 101.49   -4 LegendNANA
04:00 Legend Double Dagger -0.6 -1.3 96 22 12 24.1 101.45   -5 LegendNANA
05:00 Legend Double Dagger -0.9 -1.6 95 22 10 24.1 101.42   -4 Clear
06:00 Legend Double Dagger -0.7 -1.3 96 22 12 24.1 101.39   -5 LegendNANA
07:00 Legend Double Dagger 0.9 -0.2 92 23 14 24.1 101.38     LegendNANA
08:00 Legend Double Dagger 4.3 1.8 83 24 19 24.1 101.36     Mainly Clear
09:00 Legend Double Dagger 7.7 3.3 74 23 24 24.1 101.37     LegendNANA
10:00 Legend Double Dagger 10.3 3.9 64 23 27 24.1 101.33     LegendNANA
11:00 Legend Double Dagger 12.7 3.5 53 23 23 24.1 101.23     Mainly Clear
12:00 Legend Double Dagger 14.7 3.2 46 23 25 24.1 101.14     LegendNANA
13:00 Legend Double Dagger 15.9 2.3 40 22 27 24.1 101.02     LegendNANA
14:00 Legend Double Dagger 16.8 2.2 37 23 32 24.1 100.97     Clear
15:00 Legend Double Dagger 17.5 0.9 33 23 33 24.1 100.89     LegendNANA
16:00 Legend Double Dagger 17.4 1.0 33 23 33 24.1 100.85     LegendNANA
17:00 Legend Double Dagger 17.0 0.6 33 24 24 24.1 100.84     Clear
18:00 Legend Double Dagger 15.4 0.8 37 24 19 24.1 100.89     LegendNANA
19:00 Legend Double Dagger 11.9 2.1 51 24 11 24.1 100.96     LegendNANA
20:00 Legend Double Dagger 11.8 5.0 63 24 22 24.1 101.06     Clear
21:00 Legend Double Dagger 10.2 5.6 73 23 18 24.1 101.10     LegendNANA
22:00 Legend Double Dagger 8.7 5.5 80 23 16 24.1 101.09     LegendNANA
23:00 Legend Double Dagger 8.8 5.8 82 25 18 24.1 101.10     Clear

Notes on Data Quality.

Legend

  • E = Estimated
  • M = Missing
  • NA = Not Available
  • ‡ = Partner data that is not subject to review by the National Climate Archives
Date modified: